Madison, WI

11:06 AM CDT on May 25, 2018 (GMT -0500)
Dane County Regional-Truax

Weather History for KMSN - February, 2014

Change the Weather History Date:

Thursday, February 20, 2014

  Actual Average Record
Temperature  
Mean Temperature 38 °F 25 °F  
Max Temperature 42 °F 33 °F 62 °F (2017)
Min Temperature 33 °F 17 °F -21 °F (1929)
Degree Days  
Heating Degree Days 27 40  
Month to date heating degree days 1053 862  
Since 1 July heating degree days 5695 5175  
Cooling Degree Days 0 0  
Month to date cooling degree days 0 0  
Year to date cooling degree days 0 0  
Moisture  
Dew Point 33 °F    
Average Humidity 88    
Maximum Humidity 100    
Minimum Humidity 75    
Precipitation  
Precipitation 0.49 in 0.05 in 0.98 in (1953)
Month to date precipitation 1.16 0.97  
Year to date precipitation 1.81 2.20  
Snow  
Snow T in 0.40 in 4.50 in (1898)
Month to date snowfall 11.0 7.8  
Since 1 July snowfall 49.0 38.3  
Snow Depth 0.00 in    
Sea Level Pressure  
Sea Level Pressure 29.38 in    
Wind  
Wind Speed 14 mph (SE)    
Max Wind Speed 26 mph    
Max Gust Speed 38 mph    
Visibility 6 miles    
Events Rain , Snow , Thunderstorm    
T = Trace of Precipitation, MM = Missing Value Source: NWS Daily Summary

Daily Weather History Graph

Daily Weather History Graph

Search for Another Location

Airport or City:

Astronomy

Feb. 20, 2014 Rise Set
Actual Time 6:47 AM CST 5:35 PM CST
Civil Twilight 6:18 AM CST 6:04 PM CST
Nautical Twilight 5:45 AM CST 6:37 PM CST
Astronomical Twilight 5:12 AM CST 7:10 PM CST
Moon 11:39 PM CST (2/20) 9:20 AM CST (2/20)
Length of Visible Light 11h 45m
Length of Day
10h 47m
Waning Gibbous, 70% of the Moon is Illuminated
Feb 20
Waning Gibbous
Feb 22
Last Quarter
Mar 1
New
Mar 8
First Quarter
Mar 16
Full

Hourly Weather History & Observations

Time (CST) Temp. Windchill Dew Point Humidity Pressure Visibility Wind Dir Wind Speed Gust Speed Precip Events Conditions
12:53 AM 33.1 °F 26.9 °F 27.0 °F 78% 29.87 in 7.0 mi SSE 6.9 mph - N/A   Mostly Cloudy
1:53 AM 34.0 °F 27.2 °F 27.0 °F 75% 29.84 in 8.0 mi SSE 8.1 mph - N/A   Overcast
2:53 AM 34.0 °F 28.8 °F 27.0 °F 75% 29.80 in 10.0 mi South 5.8 mph - N/A   Overcast
3:53 AM 35.1 °F 27.9 °F 28.0 °F 76% 29.78 in 7.0 mi SSE 9.2 mph - 0.00 in   Overcast
4:53 AM 34.0 °F 26.0 °F 30.9 °F 89% 29.77 in 5.0 mi SSE 10.4 mph - 0.01 in Rain Light Rain
5:41 AM 35.1 °F 27.9 °F 32.0 °F 89% 29.73 in 4.0 mi SE 9.2 mph - 0.03 in Rain Light Rain
5:53 AM 35.1 °F 28.6 °F 32.0 °F 89% 29.75 in 3.0 mi SE 8.1 mph - 0.04 in Rain Light Rain
5:56 AM 35.1 °F 28.6 °F 32.0 °F 89% 29.73 in 3.0 mi SE 8.1 mph - 0.00 in Rain Light Rain
6:53 AM 35.1 °F 27.9 °F 33.1 °F 92% 29.74 in 4.0 mi SE 9.2 mph - 0.03 in Rain Light Rain
7:53 AM 35.1 °F 26.9 °F 33.1 °F 92% 29.71 in 4.0 mi ESE 11.5 mph - 0.01 in Rain Light Rain
8:53 AM 35.1 °F 25.5 °F 33.1 °F 92% 29.65 in 8.0 mi East 15.0 mph - 0.00 in   Overcast
9:53 AM 36.0 °F 29.0 °F 33.1 °F 89% 29.65 in 9.0 mi East 9.2 mph - N/A   Overcast
10:53 AM 36.0 °F 26.3 °F 33.1 °F 89% 29.60 in 9.0 mi East 16.1 mph - N/A   Overcast
11:53 AM 36.0 °F 26.7 °F 33.1 °F 89% 29.56 in 6.0 mi ESE 15.0 mph - N/A   Overcast
12:23 PM 36.0 °F 26.0 °F 33.1 °F 89% 29.52 in 2.5 mi ESE 17.3 mph 27.6 mph 0.00 in Rain Light Rain
12:53 PM 35.1 °F 24.5 °F 32.0 °F 89% 29.46 in 2.5 mi East 18.4 mph 27.6 mph 0.02 in Rain Light Rain
12:57 PM 35.1 °F 24.8 °F 32.0 °F 89% 29.43 in 2.5 mi East 17.3 mph 27.6 mph 0.02 in Rain Ice Pellets
1:06 PM 35.1 °F 25.5 °F 32.0 °F 89% 29.43 in 3.0 mi East 15.0 mph 27.6 mph 0.04 in Rain Light Rain
1:53 PM 35.1 °F 25.2 °F 32.0 °F 89% 29.40 in 4.0 mi East 16.1 mph 31.1 mph 0.04 in   Overcast
2:53 PM 35.1 °F 24.5 °F 33.1 °F 92% 29.34 in 4.0 mi East 18.4 mph 27.6 mph 0.00 in Rain Light Rain
3:37 PM 35.1 °F 24.8 °F 33.1 °F 92% 29.25 in 4.0 mi East 17.3 mph - 0.00 in Rain , Thunderstorm Light Thunderstorms and Rain
3:53 PM 35.1 °F 25.5 °F 33.1 °F 92% 29.25 in 3.0 mi East 15.0 mph - 0.05 in Rain , Thunderstorm Thunderstorms and Rain
4:03 PM 35.1 °F 24.8 °F 33.1 °F 92% 29.22 in 1.5 mi East 17.3 mph - 0.02 in Rain Heavy Rain
4:13 PM 35.1 °F 24.5 °F 33.1 °F 92% 29.21 in 2.0 mi East 18.4 mph - 0.06 in Rain Light Rain
4:32 PM 36.0 °F 26.0 °F 34.0 °F 93% 29.19 in 1.5 mi ESE 17.3 mph - 0.07 in Rain Light Rain
4:44 PM 36.0 °F 27.5 °F 34.0 °F 93% 29.21 in 1.5 mi ESE 12.7 mph 23.0 mph 0.08 in Rain , Thunderstorm Thunderstorms and Rain
4:53 PM 36.0 °F 26.0 °F 34.0 °F 93% 29.23 in 1.8 mi ESE 17.3 mph 20.7 mph 0.14 in Rain , Thunderstorm Thunderstorms and Rain
5:07 PM 36.0 °F 28.5 °F 34.0 °F 93% 29.23 in 1.5 mi SSE 10.4 mph - 0.06 in Rain Rain
5:23 PM 36.0 °F 28.5 °F 34.0 °F 93% 29.18 in 2.0 mi ESE 10.4 mph - 0.13 in Rain Rain
5:44 PM 36.0 °F 27.5 °F 34.0 °F 93% 29.13 in 8.0 mi ESE 12.7 mph - 0.14 in   Overcast
5:53 PM 36.0 °F 27.5 °F 34.0 °F 93% 29.14 in 10.0 mi ESE 12.7 mph - 0.14 in   Overcast
6:16 PM 36.0 °F 26.0 °F 35.1 °F 97% 29.09 in 6.0 mi ESE 17.3 mph - N/A   Overcast
6:53 PM 37.9 °F 28.2 °F 37.0 °F 97% 29.08 in 5.0 mi SE 18.4 mph - N/A   Overcast
7:22 PM 39.9 °F 31.1 °F 39.0 °F 97% 29.05 in 2.0 mi SSE 17.3 mph - 0.00 in   Light Drizzle
7:41 PM 41.0 °F 31.4 °F 39.0 °F 93% 29.05 in 2.0 mi South 21.9 mph 36.8 mph 0.01 in   Light Drizzle
7:53 PM 39.0 °F 29.0 °F 37.0 °F 93% 29.08 in 6.0 mi South 20.7 mph 34.5 mph 0.01 in   Overcast
8:49 PM 37.4 °F 26.9 °F 33.8 °F 87% 29.08 in 10.0 mi SSW 20.7 mph 34.5 mph N/A   Overcast
8:53 PM 37.0 °F 27.0 °F 33.1 °F 86% 29.11 in 10.0 mi SSW 18.4 mph 34.5 mph N/A   Overcast
9:53 PM 36.0 °F 26.0 °F 30.9 °F 82% 29.12 in 10.0 mi SW 17.3 mph 28.8 mph 0.00 in Snow Light Snow
10:45 PM 36.0 °F 26.0 °F 30.0 °F 79% 29.13 in 10.0 mi SW 17.3 mph 28.8 mph 0.00 in   Overcast
10:53 PM 36.0 °F 27.1 °F 30.0 °F 79% 29.15 in 10.0 mi WSW 13.8 mph 28.8 mph 0.00 in   Overcast
10:58 PM 36.0 °F 26.7 °F 30.0 °F 79% 29.12 in 10.0 mi SW 15.0 mph 28.8 mph N/A   Overcast
11:53 PM 35.1 °F 25.5 °F 30.0 °F 82% 29.16 in 10.0 mi WSW 15.0 mph 29.9 mph N/A   Overcast